Bookmark and Share
Track history (hours):
 

Gentle Leader

Last reported at 2014-Apr-22 19:31 UTC. Time now 2014-Apr-24 00:07 UTC.
Position N 36°00' W 005°07'.

Length 200 m; draft 9.6 m.

Type: Cargo ship. MMSI: 311003300.

NotesDate/timePositionNaut miles runAvg speedWind from/ knotsBaromVisibWave heightAir tempDewpointWater temp
2014-Apr-22 19:31N 36°00' W 005°07'1818.7
2014-Apr-22 18:32N 35°57' W 005°29'23514.6
2014-Apr-22 02:26N 37°44' W 009°50'2116.2
2014-Apr-22 01:08N 38°04' W 009°56'  
2014-Apr-19 20:23N 50°14' W 001°60'1315.7
2014-Apr-19 19:33N 50°20' W 001°42'1717.2
2014-Apr-19 18:33N 50°28' W 001°18'1616.3
2014-Apr-19 17:33N 50°39' W 000°59'1211.8
2014-Apr-19 16:33N 50°47' W 001°13'7 7.0
2014-Apr-19 15:33N 50°51' W 001°21'2 2.2
2014-Apr-19 14:29N 50°53' W 001°24'0 0.0
2014-Apr-19 13:32N 50°53' W 001°24'0 0.0
2014-Apr-19 12:32N 50°53' W 001°24'0 0.0
2014-Apr-19 11:32N 50°53' W 001°24'0 0.0
2014-Apr-19 10:32N 50°53' W 001°24'0 0.0
2014-Apr-19 09:32N 50°53' W 001°24'0 0.0
2014-Apr-19 08:32N 50°53' W 001°24'0 0.0
2014-Apr-19 07:32N 50°53' W 001°24'0 0.0
2014-Apr-19 06:32N 50°53' W 001°24'0 0.0
2014-Apr-19 05:32N 50°53' W 001°24'0 0.0
2014-Apr-19 04:32N 50°53' W 001°24'0 0.0
2014-Apr-19 03:32N 50°53' W 001°24'0 0.0
2014-Apr-19 02:32N 50°53' W 001°24'0 0.0
2014-Apr-19 01:32N 50°53' W 001°24'0 0.0
2014-Apr-19 00:32N 50°53' W 001°24'0 0.0
2014-Apr-18 23:32N 50°53' W 001°24'0 0.0
2014-Apr-18 22:32N 50°53' W 001°24'0 0.0
2014-Apr-18 21:32N 50°53' W 001°24'0 0.0
2014-Apr-18 20:32N 50°53' W 001°24'0 0.0
2014-Apr-18 19:32N 50°53' W 001°24'0 0.0
2014-Apr-18 18:32N 50°53' W 001°24'0 0.0
2014-Apr-18 17:32N 50°53' W 001°24'0 0.0
2014-Apr-18 16:32N 50°53' W 001°24'0 0.0
2014-Apr-18 15:32N 50°53' W 001°24'0 0.0
2014-Apr-18 14:32N 50°53' W 001°24'0 0.0
2014-Apr-18 13:32N 50°53' W 001°24'0 0.0
2014-Apr-18 12:32N 50°53' W 001°24'0 0.0
2014-Apr-18 11:32N 50°53' W 001°24'0 0.0
2014-Apr-18 10:32N 50°53' W 001°24'0 0.0
2014-Apr-18 09:32N 50°53' W 001°24'0 0.0
2014-Apr-18 08:32N 50°53' W 001°24'0 0.0
2014-Apr-18 07:32N 50°53' W 001°24'6 6.2
2014-Apr-18 06:34N 50°49' W 001°17'1211.9
2014-Apr-18 05:33N 50°43' W 001°01'9 9.1
2014-Apr-18 04:33N 50°36' W 000°51'10 9.6
2014-Apr-18 03:33N 50°30' W 000°40'1812.8
2014-Apr-18 02:08N 50°31' W 000°11'1016.9
2014-Apr-18 01:33N 50°33' E 000°04'1615.9
2014-Apr-18 00:33N 50°36' E 000°28'1515.1
2014-Apr-17 23:33N 50°44' E 000°48'1915.8
2014-Apr-17 22:20N 50°56' E 001°12'1418.3
2014-Apr-17 21:33N 51°05' E 001°30'1919.0
2014-Apr-17 20:33N 51°18' E 001°52'1313.0
2014-Apr-17 19:33N 51°21' E 002°12'1717.3
2014-Apr-17 18:33N 51°23' E 002°39'1313.2
2014-Apr-17 17:33N 51°24' E 003°01'1716.9
2014-Apr-17 16:33N 51°25' E 003°28'10 9.7
2014-Apr-17 15:33N 51°23' E 003°43'9 9.4
2014-Apr-17 14:33N 51°25' E 003°58'7 7.4
2014-Apr-17 13:33N 51°23' E 004°09'7 6.8
2014-Apr-17 12:33N 51°18' E 004°17'2 2.2
2014-Apr-17 11:34N 51°16' E 004°17'1 1.3
2014-Apr-17 10:33N 51°16' E 004°15'1 0.9
2014-Apr-17 09:28N 51°16' E 004°13'0 0.0
2014-Apr-17 08:31N 51°16' E 004°13'0 0.0
2014-Apr-17 07:19N 51°16' E 004°13'0 0.0
2014-Apr-17 06:31N 51°16' E 004°13'0 0.0
2014-Apr-17 05:31N 51°16' E 004°13'0 0.0
2014-Apr-17 04:31N 51°16' E 004°13'0 0.0
2014-Apr-17 03:31N 51°16' E 004°13'0 0.0
2014-Apr-17 02:19N 51°16' E 004°13'0 0.0
2014-Apr-17 01:28N 51°16' E 004°13'0 0.0
2014-Apr-17 00:31N 51°16' E 004°13'0 0.0
2014-Apr-16 23:31N 51°16' E 004°13'0 0.0
2014-Apr-16 22:31N 51°16' E 004°13'0 0.0
2014-Apr-16 21:31N 51°16' E 004°13'0 0.0
2014-Apr-16 20:25N 51°16' E 004°13'0 0.0
2014-Apr-16 19:31N 51°16' E 004°13'0 0.0
2014-Apr-16 18:19N 51°16' E 004°13'0 0.0
2014-Apr-16 17:31N 51°16' E 004°13'0 0.0
2014-Apr-16 16:31N 51°16' E 004°13'0 0.0
2014-Apr-16 15:31N 51°16' E 004°13'0 0.0
2014-Apr-16 14:31N 51°16' E 004°13'0 0.0
2014-Apr-16 13:25N 51°16' E 004°13'0 0.0
2014-Apr-16 12:31N 51°16' E 004°13'0 0.0
2014-Apr-16 11:31N 51°16' E 004°13'0 0.0
2014-Apr-16 10:31N 51°16' E 004°13'0 0.0
2014-Apr-16 09:31N 51°16' E 004°13'0 0.0
2014-Apr-16 08:31N 51°16' E 004°13'0 0.0
2014-Apr-16 07:31N 51°16' E 004°13'0 0.0
2014-Apr-16 06:31N 51°16' E 004°13'0 0.0
2014-Apr-16 05:31N 51°16' E 004°13'0 0.0
2014-Apr-16 04:31N 51°16' E 004°13'0 0.0
2014-Apr-16 03:31N 51°16' E 004°13'1 1.6
2014-Apr-16 02:34N 51°16' E 004°16'1 0.8
2014-Apr-16 01:33N 51°16' E 004°17'2 2.3
2014-Apr-16 00:34N 51°18' E 004°17'8 7.9
2014-Apr-15 23:33N 51°22' E 004°06'1211.6
2014-Apr-15 22:33N 51°21' E 003°47'1110.6
2014-Apr-15 21:33N 51°25' E 003°32'1312.6
2014-Apr-15 20:33N 51°24' E 003°12'8 8.0
2014-Apr-15 19:33N 51°31' E 003°05'1414.1
2014-Apr-15 18:33N 51°45' E 003°10'8 7.5
2014-Apr-15 17:30N 51°48' E 002°58'81 9.0
2014-Apr-15 08:34N 52°59' E 004°01'3417.0
2014-Apr-15 06:34N 53°26' E 004°35'1716.9
2014-Apr-15 05:34N 53°34' E 004°60'3416.9
2014-Apr-15 03:32N 53°45' E 005°55'5217.6
2014-Apr-15 00:34N 53°57' E 007°21'1414.3
2014-Apr-14 23:34N 53°54' E 007°45'1514.9
2014-Apr-14 22:34N 53°48' E 008°08'1414.0
2014-Apr-14 21:34N 53°39' E 008°25'7 6.6
2014-Apr-14 20:34N 53°34' E 008°33'0 0.4
2014-Apr-14 19:33N 53°35' E 008°33'0 0.0
2014-Apr-14 18:33N 53°35' E 008°33'0 0.0
2014-Apr-14 17:33N 53°35' E 008°33'0 0.0
2014-Apr-14 16:33N 53°35' E 008°33'0 0.0
2014-Apr-14 15:33N 53°35' E 008°33'0 0.0
2014-Apr-14 14:33N 53°35' E 008°33'0 0.0
2014-Apr-14 13:33N 53°35' E 008°33'0 0.0
2014-Apr-14 11:33N 53°35' E 008°33'0 0.0
2014-Apr-14 10:32N 53°35' E 008°33'0 0.0
2014-Apr-14 09:32N 53°35' E 008°33'0 0.0
2014-Apr-14 07:32N 53°35' E 008°33'0 0.0
2014-Apr-14 06:29N 53°35' E 008°33'0 0.0
2014-Apr-14 05:32N 53°35' E 008°33'0 0.0
2014-Apr-13 22:32N 53°35' E 008°33'0 0.0
2014-Apr-13 21:32N 53°35' E 008°33'0 0.4
2014-Apr-13 20:33N 53°34' E 008°33'7 7.2
2014-Apr-13 19:33N 53°39' E 008°24'1818.3
2014-Apr-13 18:33N 53°51' E 008°01'1212.5
2014-Apr-13 17:33N 53°55' E 007°40'1212.2
2014-Apr-13 16:33N 54°05' E 007°31'3 3.3
2014-Apr-13 15:33N 54°09' E 007°31'1312.9
2014-Apr-13 14:33N 53°57' E 007°41'1212.0
2014-Apr-13 13:33N 54°07' E 007°29'1615.6
2014-Apr-13 12:33N 54°22' E 007°24'1616.0
2014-Apr-13 11:32N 54°39' E 007°24'1615.8
2014-Apr-13 10:32N 54°54' E 007°24'1616.3
2014-Apr-13 09:33N 55°10' E 007°24'1616.3
2014-Apr-13 08:34N 55°27' E 007°23'9317.3
2014-Apr-13 03:12N 56°58' E 007°58'7117.9
2014-Apr-12 23:14N 57°44' E 009°38'1218.3
2014-Apr-12 22:33N 57°47' E 010°00'1818.3
2014-Apr-12 21:33N 57°51' E 010°33'1817.6
2014-Apr-12 20:33N 57°51' E 011°06'1211.5
2014-Apr-12 19:33N 57°52' E 011°28'  

Dump ship's entire track history

sailing weather and tide predictions

Gentle Leader — C6WY9 — position and weather